weather.gov     
National Weather Service

Terminal Aerodrome Forecast
NWS Homepage
This page is being discontinued on March 12, 2014.
The same data is available at this site. Please update your bookmarks.
Thank you, and we apologize for the inconvenience.
Please send an email to SR-SRH.Webmaster@noaa.gov with any concerns.


Current Version
Previous Version:    01  02  03  04  05  06  07  08  09  10  11  12  13  14  15  16  17  18  19  
[Printable]
885
FTUS44 KOUN 192324
TAFPNC
TAF
KPNC 192324Z 2000/2024 15007KT P6SM SCT050 BKN120
     FM200600 17006KT P6SM BKN050
     FM201300 VRB05KT P6SM BKN050
     FM201900 06007KT P6SM SCT050=


885
FTUS44 KOUN 192324
TAFPNC
TAF
KPNC 192324Z 2000/2024 15007KT P6SM SCT050 BKN120
     FM200600 17006KT P6SM BKN050
     FM201300 VRB05KT P6SM BKN050
     FM201900 06007KT P6SM SCT050=




U.S. Dept. of Commerce
NOAA National Weather Service
1325 East West Highway
Silver Spring, MD 20910
E-mail: w-nws.webmaster@noaa.gov
Page last modified: May 16, 2007
NATIONAL WEATHER SERVICE: for Safety, for Work, for Fun - FOR LIFE